Date String (YYYY-MM-DD hh:mm:ss) UTC,Instrument flags,Ambient pressure (hPa),Sample flow (lpm),Bypass flow (lpm),Sample temperature (°C),Ambient temperature (°C),ASC tube jacket temperature (°C),LED temperature (°C),Box temperature (°C),Sample RH (%),Span deviation,Mass concentration (μg/m³),Mass concentration (μg/m³),Mass concentration (μg/m³)
DateTimeUTC,F1_M11,P_M11,Q1_M11,Q2_M11,T1_M11,T2_M11,T3_M11,T4_M11,T5_M11,U1_M11,ZSPAN_M11,X0_M11,X2_M11,X1_M11
2022-04-16 19:00:00,,0823.6,5.00,0.00,24.8,24.0,00.0,33.6,26.6,10.8,0000.1,0016.89,0007.33,0005.90
2022-04-16 19:01:00,,0823.6,5.00,0.00,24.8,24.1,00.0,33.6,26.6,10.9,-000.2,0016.46,0007.35,0005.91
2022-04-16 19:02:00,,0823.6,5.00,0.00,24.8,24.1,00.0,33.6,26.6,11.0,-000.4,0017.24,0007.38,0005.93
2022-04-16 19:03:00,,0823.5,5.00,0.00,24.8,24.1,00.0,33.6,26.7,11.0,0000.1,0017.69,0007.35,0005.95
2022-04-16 19:04:00,,0823.4,5.00,0.00,24.8,24.1,00.0,33.6,26.7,11.0,-000.1,0016.85,0007.40,0005.96
2022-04-16 19:05:00,,0823.3,5.01,0.00,24.9,24.2,00.0,33.7,26.7,10.9,-000.3,0017.85,0007.42,0005.97
2022-04-16 19:06:00,,0823.4,5.00,0.00,24.9,24.2,00.0,33.7,26.8,10.8,0000.1,0017.60,0007.44,0006.00
2022-04-16 19:07:00,,0823.3,5.00,0.00,24.9,24.2,00.0,33.7,26.8,10.8,0000.8,0018.26,0007.42,0006.01
2022-04-16 19:08:00,,0823.4,4.99,0.00,24.9,24.2,00.0,33.7,26.8,10.9,0000.7,0018.29,0007.41,0006.01
2022-04-16 19:09:00,,0823.4,5.00,0.00,24.9,24.2,00.0,33.7,26.8,11.0,0000.4,0018.13,0007.40,0006.03
2022-04-16 19:10:00,,0823.4,5.00,0.00,25.0,24.3,00.0,33.7,26.8,11.0,0000.0,0018.89,0007.45,0006.05
2022-04-16 19:11:00,,0823.3,5.00,0.00,25.0,24.3,00.0,33.8,26.8,11.0,0000.0,0018.70,0007.53,0006.09
2022-04-16 19:12:00,,0823.3,5.00,0.00,25.0,24.3,00.0,33.8,26.8,11.0,0000.0,0018.31,0007.53,0006.13
2022-04-16 19:13:00,,0823.2,5.01,0.00,25.0,24.3,00.0,33.8,26.8,11.2,0000.0,0018.33,0007.56,0006.16
2022-04-16 19:14:00,,0823.1,5.00,0.00,25.0,24.3,00.0,33.8,26.8,11.2,0000.0,0017.34,0007.59,0006.17
2022-04-16 19:15:00,,0823.1,4.99,0.00,25.0,24.3,00.0,33.8,26.9,11.2,0000.0,0017.65,0007.61,0006.17
2022-04-16 19:16:00,,0823.1,4.99,0.00,25.0,24.2,00.0,33.8,26.9,11.1,0000.0,0016.66,0007.62,0006.20
2022-04-16 19:17:00,,0823.1,5.00,0.00,25.0,24.3,00.0,33.8,26.9,11.0,0000.0,0016.49,0007.67,0006.20
2022-04-16 19:18:00,,0823.0,5.00,0.00,25.0,24.3,00.0,33.8,26.9,11.0,0000.0,0016.00,0007.68,0006.20
2022-04-16 19:19:00,,0823.0,5.00,0.00,25.0,24.3,00.0,33.9,26.9,11.0,0000.0,0015.56,0007.73,0006.22
2022-04-16 19:20:00,,0822.9,5.00,0.00,25.0,24.3,00.0,33.9,26.9,11.0,0000.0,0016.54,0007.79,0006.23
2022-04-16 19:21:00,,0822.9,5.00,0.00,25.0,24.3,00.0,33.9,26.9,10.9,0000.0,0016.95,0007.82,0006.22
2022-04-16 19:22:00,,0822.9,4.99,0.00,25.0,24.3,00.0,33.9,26.9,10.8,0000.0,0017.36,0007.80,0006.22
2022-04-16 19:23:00,,0822.9,5.00,0.00,25.0,24.3,00.0,33.9,26.9,11.0,0000.0,0017.61,0007.75,0006.22
2022-04-16 19:24:00,,0822.9,5.00,0.00,25.0,24.3,00.0,33.9,26.9,11.1,0000.0,0017.06,0007.72,0006.22
2022-04-16 19:25:00,,0822.8,5.00,0.00,25.0,24.3,00.0,33.9,26.9,10.9,0000.0,0017.93,0007.70,0006.22
2022-04-16 19:26:00,,0822.7,5.00,0.00,25.1,24.3,00.0,33.9,26.9,10.8,0000.0,0017.57,0007.67,0006.22
2022-04-16 19:27:00,,0822.7,5.01,0.00,25.1,24.3,00.0,33.9,26.9,10.9,0000.0,0018.16,0007.69,0006.23
2022-04-16 19:28:00,,0822.7,4.99,0.00,25.1,24.3,00.0,33.9,27.0,10.7,0000.0,0018.54,0007.69,0006.23
2022-04-16 19:29:00,,0822.7,5.01,0.00,25.1,24.4,00.0,33.9,27.0,10.7,0000.0,0018.61,0007.71,0006.24
2022-04-16 19:30:00,,0822.7,5.00,0.00,25.1,24.4,00.0,33.9,27.0,10.8,0000.0,0018.45,0007.70,0006.24
2022-04-16 19:31:00,,0822.6,4.99,0.00,25.1,24.3,00.0,34.0,27.0,10.8,0000.0,0017.85,0007.71,0006.25
2022-04-16 19:32:00,,0822.6,4.99,0.00,25.1,24.3,00.0,34.0,27.0,11.0,0000.0,0017.28,0007.72,0006.27
2022-04-16 19:33:00,,0822.7,5.01,0.00,25.1,24.4,00.0,34.0,27.0,10.9,0000.0,0016.81,0007.70,0006.28
2022-04-16 19:34:00,,0822.6,5.01,0.00,25.1,24.4,00.0,34.0,27.0,10.9,0000.1,0016.70,0007.71,0006.28
2022-04-16 19:35:00,,0822.6,4.99,0.00,25.1,24.3,00.0,34.0,27.0,10.8,0000.8,0017.35,0007.70,0006.28
2022-04-16 19:36:00,,0822.6,4.99,0.00,25.1,24.3,00.0,34.0,27.0,10.8,0001.5,0016.83,0007.73,0006.28
2022-04-16 19:37:00,,0822.7,4.99,0.00,25.1,24.4,00.0,34.0,27.0,10.7,0002.3,0017.94,0007.78,0006.29
2022-04-16 19:38:00,,0822.7,5.01,0.00,25.1,24.4,00.0,34.0,27.0,10.7,0002.7,0018.58,0007.74,0006.30
2022-04-16 19:39:00,,0822.6,4.99,0.00,25.2,24.4,00.0,34.0,27.1,10.9,0002.7,0019.79,0007.72,0006.31
2022-04-16 19:40:00,,0822.6,5.00,0.00,25.2,24.4,00.0,34.0,27.1,10.9,0002.5,0021.36,0007.78,0006.33
2022-04-16 19:41:00,,0822.6,5.02,0.00,25.2,24.5,00.0,34.0,27.1,11.0,0001.2,0022.05,0007.77,0006.32
2022-04-16 19:42:00,,0822.6,5.00,0.00,25.2,24.5,00.0,34.0,27.1,10.9,0001.9,0021.87,0007.76,0006.33
2022-04-16 19:43:00,,0822.6,4.99,0.00,25.2,24.5,00.0,34.0,27.1,10.8,0002.0,0021.50,0007.75,0006.34
2022-04-16 19:44:00,,0822.5,5.00,0.00,25.3,24.5,00.0,34.1,27.2,10.7,0000.0,0021.35,0007.79,0006.35
2022-04-16 19:45:00,,0822.5,5.01,0.00,25.3,24.5,00.0,34.1,27.2,10.8,0000.0,0021.81,0007.83,0006.37
2022-04-16 19:46:00,,0822.5,4.99,0.00,25.3,24.6,00.0,34.1,27.2,10.9,0000.0,0022.16,0007.89,0006.39
2022-04-16 19:47:00,,0822.5,5.00,0.00,25.3,24.6,00.0,34.1,27.1,10.9,0000.0,0023.39,0007.99,0006.42
2022-04-16 19:48:00,,0822.5,4.99,0.00,25.3,24.6,00.0,34.1,27.2,10.8,0000.0,0023.01,0008.04,0006.46
2022-04-16 19:49:00,,0822.5,5.01,0.00,25.3,24.6,00.0,34.1,27.2,11.0,0000.0,0022.54,0008.09,0006.48
2022-04-16 19:50:00,,0822.5,4.99,0.00,25.3,24.7,00.0,34.1,27.2,11.0,0000.0,0021.13,0008.13,0006.49
2022-04-16 19:51:00,,0822.4,5.00,0.00,25.4,24.7,00.0,34.2,27.2,10.9,0000.0,0019.51,0008.18,0006.52
2022-04-16 19:52:00,,0822.4,5.00,0.00,25.4,24.7,00.0,34.2,27.3,10.7,0000.0,0018.36,0008.19,0006.55
2022-04-16 19:53:00,,0822.4,4.99,0.00,25.4,24.7,00.0,34.2,27.3,10.7,0000.5,0018.00,0008.29,0006.60
2022-04-16 19:54:00,,0822.4,5.01,0.00,25.4,24.7,00.0,34.2,27.3,10.7,0000.4,0018.70,0008.34,0006.62
2022-04-16 19:55:00,,0822.3,5.01,0.00,25.4,24.7,00.0,34.2,27.3,10.7,0000.4,0019.04,0008.38,0006.65
2022-04-16 19:56:00,,0822.3,4.99,0.00,25.4,24.7,00.0,34.2,27.3,10.7,0000.5,0018.96,0008.38,0006.69
2022-04-16 19:57:00,,0822.3,4.99,0.00,25.4,24.7,00.0,34.2,27.3,10.8,0001.8,0019.00,0008.34,0006.70
2022-04-16 19:58:00,,0822.3,5.01,0.00,25.4,24.7,00.0,34.2,27.3,10.9,0001.2,0017.72,0008.35,0006.71
2022-04-16 19:59:00,,0822.3,5.02,0.00,25.5,24.8,00.0,34.3,27.4,10.9,0000.6,0016.92,0008.37,0006.74
